Вернуться в каталог

STARLINK-11088

АктивенСвязьVLEO
NORAD 59709·PAYLOAD·🇺🇸 United States

Запущен May 10, 2024 с Vandenberg Space Force Base

Loading…

Ближайшие Пролёты (ближайшие 24 часа)

TLE

СвежийSource: CelesTrak SupGP

Эпоха: Sep 14, 2026, 22:27 UTC

1 59709C 24088B   26257.93590278 -.00049367  00000+0 -40667-3 0  2570
2 59709  53.1567 113.6646 0001177  91.2122 186.6847 15.69732524    14

Отслеживайте STARLINK-11088 в реальном времени с AllMySat

Download on the App Store